Location: Dana
(41.8364°N, 106.7042°W)
Time: 01:27:07
(UTC+00:00)

Transit 4A - Pass Details

Date: 13 May 2026
Orbit: 860 x 980 km, 66.8° (Epoch: 6 June)

Event Time Altitude Azimuth Distance (km) Brightness Sun altitude
Rises 01:56:52 0° 317° (NW) 3,689 12.4 2.6°
Reaches altitude 10° 01:59:59 10° 304° (WNW) 2,736 12.5 2.1°
Maximum altitude 02:04:46 23° 255° (WSW) 1,960 10.5 1.3°
Drops below altitude 10° 02:09:30 10° 206° (SSW) 2,697 10.4 0.5°
Sets 02:12:34 0° 192° (SSW) 3,624 10.8 0.0°
